sat.trackr.live / text

‹ back to catalog

STARLINK-11135 [DTC]

NORAD 60048 · 2024-112L

PAYLOAD ACTIVE UNKNOWN

§ Identity

Operator
Country
US
Launch date
2024-06-08
Launch site
AFWTR
Launch vehicle
Mass (kg)
RCS (m²)

Purposes: comms

External: N2YO · Heavens-Above · Gunter

§ Orbital elements

Epoch: 2026-05-25T00:22:31.810080Z

Period
91.74 min
Inclination
53.1589°
Eccentricity
0.0000974
Mean motion
15.69710089 rev/d
Perigee alt
359.1 km
Apogee alt
360.4 km
Semi-major
6,737.9 km
B*
1.7680e-5
RAAN
249.6764°
Arg perigee
62.2102°
Mean anomaly
297.9014°
Rev number
11,297

§ Raw data

STARLINK-11135 [DTC]1 60048U 24112L   26145.01564595  .00001554  00000+0  17680-4 0  99912 60048  53.1589 249.6764 0000974  62.2102 297.9014 15.69710089112970

JSON: /api/v1/satellites/60048 · /tle

For live sub-satellite position, see the globe view (requires WebGL).

§ Visibility from observer

Set your observer location to see the next 7 days of passes ≥ 10°. The values pass through the URL so the page stays shareable.

No JS? Fill the form by hand. The geolocation button needs JavaScript.